owner,sensor,date,latitude,longitude,vertical_datum,wind_speed,wind_to_direction,wind_speed_of_gust,qcFlag 
TCOON,ioos:station:TCOON:057:1,2008-06-01T00:00:00Z,28.4460,-96.3961,0.0,6.7,158.0,7.6,'11111222,11111222,11111222' 
TCOON,ioos:station:TCOON:057:1,2008-06-01T01:00:00Z,28.4460,-96.3961,0.0,6.6,161.0,7.8,'11111222,11111222,11111222' 
TCOON,ioos:station:TCOON:057:1,2008-06-01T02:00:00Z,28.4460,-96.3961,0.0,7.4,156.0,9.2,'11111222,11111222,11111222' 
TCOON,ioos:station:TCOON:057:1,2008-06-01T03:00:00Z,28.4460,-96.3961,0.0,7.9,158.0,8.8,'11111222,11111222,11111222' 
TCOON,ioos:station:TCOON:057:1,2008-06-01T04:00:00Z,28.4460,-96.3961,0.0,8.0,161.0,9.0,'11111222,11111222,11111222' 
TCOON,ioos:station:TCOON:057:1,2008-06-01T05:00:00Z,28.4460,-96.3961,0.0,7.9,160.0,9.2,'11111222,11111222,11111222' 
TCOON,ioos:station:TCOON:057:1,2008-06-01T06:00:00Z,28.4460,-96.3961,0.0,8.8,172.0,9.5,'11111222,11111222,11111222' 
TCOON,ioos:station:TCOON:057:1,2008-06-01T07:00:00Z,28.4460,-96.3961,0.0,7.7,160.0,8.4,'11111222,11111222,11111222' 
TCOON,ioos:station:TCOON:057:1,2008-06-01T08:00:00Z,28.4460,-96.3961,0.0,7.7,166.0,9.0,'11111222,11111222,11111222' 
TCOON,ioos:station:TCOON:057:1,2008-06-01T09:00:00Z,28.4460,-96.3961,0.0,8.2,180.0,9.2,'11111222,11111222,11111222' 
TCOON,ioos:station:TCOON:057:1,2008-06-01T10:00:00Z,28.4460,-96.3961,0.0,7.4,184.0,9.2,'11111222,11111222,11111222' 
TCOON,ioos:station:TCOON:057:1,2008-06-01T11:00:00Z,28.4460,-96.3961,0.0,7.0,176.0,8.6,'11111222,11111222,11111222' 
TCOON,ioos:station:TCOON:057:1,2008-06-01T12:00:00Z,28.4460,-96.3961,0.0,7.0,184.0,8.2,'11111222,11111222,11111222' 
TCOON,ioos:station:TCOON:057:1,2008-06-01T13:00:00Z,28.4460,-96.3961,0.0,7.0,179.0,8.2,'11111222,11111222,11111222' 
TCOON,ioos:station:TCOON:057:1,2008-06-01T14:00:00Z,28.4460,-96.3961,0.0,6.0,171.0,7.0,'11111222,11111222,11111222' 
TCOON,ioos:station:TCOON:057:1,2008-06-01T15:00:00Z,28.4460,-96.3961,0.0,6.4,166.0,8.1,'11111222,11111222,11111222' 
TCOON,ioos:station:TCOON:057:1,2008-06-01T16:00:00Z,28.4460,-96.3961,0.0,7.1,168.0,7.9,'11111222,11111222,11111222' 
TCOON,ioos:station:TCOON:057:1,2008-06-01T17:00:00Z,28.4460,-96.3961,0.0,6.6,162.0,8.0,'11111222,11111222,11111222' 
TCOON,ioos:station:TCOON:057:1,2008-06-01T18:00:00Z,28.4460,-96.3961,0.0,5.2,160.0,5.8,'11111222,11111222,11111222' 
TCOON,ioos:station:TCOON:057:1,2008-06-01T19:00:00Z,28.4460,-96.3961,0.0,4.5,159.0,5.1,'11111222,11111222,11111222' 
TCOON,ioos:station:TCOON:057:1,2008-06-01T20:00:00Z,28.4460,-96.3961,0.0,6.3,156.0,7.4,'11111222,11111222,11111222' 
TCOON,ioos:station:TCOON:057:1,2008-06-01T21:00:00Z,28.4460,-96.3961,0.0,4.9,157.0,5.7,'11111222,11111222,11111222' 
TCOON,ioos:station:TCOON:057:1,2008-06-01T22:00:00Z,28.4460,-96.3961,0.0,6.5,146.0,7.5,'11111222,11111222,11111222' 
TCOON,ioos:station:TCOON:057:1,2008-06-01T23:00:00Z,28.4460,-96.3961,0.0,6.4,146.0,7.3,'11111222,11111222,11111222' 
TCOON,ioos:station:TCOON:057:1,2008-06-02T00:00:00Z,28.4460,-96.3961,0.0,7.5,134.0,8.6,'11111222,11111222,11111222' 
TCOON,ioos:station:TCOON:057:1,2008-06-02T01:00:00Z,28.4460,-96.3961,0.0,6.8,128.0,8.0,'11111222,11111222,11111222' 
TCOON,ioos:station:TCOON:057:1,2008-06-02T02:00:00Z,28.4460,-96.3961,0.0,7.6,134.0,8.8,'11111222,11111222,11111222' 
TCOON,ioos:station:TCOON:057:1,2008-06-02T03:00:00Z,28.4460,-96.3961,0.0,7.4,149.0,8.3,'11111222,11111222,11111222' 
TCOON,ioos:station:TCOON:057:1,2008-06-02T04:00:00Z,28.4460,-96.3961,0.0,8.8,158.0,10.1,'11111222,11111222,11111222' 
TCOON,ioos:station:TCOON:057:1,2008-06-02T05:00:00Z,28.4460,-96.3961,0.0,8.1,162.0,9.2,'11111222,11111222,11111222' 
TCOON,ioos:station:TCOON:057:1,2008-06-02T06:00:00Z,28.4460,-96.3961,0.0,7.7,167.0,9.0,'11111222,11111222,11111222' 
TCOON,ioos:station:TCOON:057:1,2008-06-02T07:00:00Z,28.4460,-96.3961,0.0,7.5,168.0,8.9,'11111222,11111222,11111222' 
TCOON,ioos:station:TCOON:057:1,2008-06-02T08:00:00Z,28.4460,-96.3961,0.0,7.3,178.0,9.4,'11111222,11111222,11111222' 
TCOON,ioos:station:TCOON:057:1,2008-06-02T09:00:00Z,28.4460,-96.3961,0.0,7.4,169.0,8.7,'11111222,11111222,11111222' 
TCOON,ioos:station:TCOON:057:1,2008-06-02T10:00:00Z,28.4460,-96.3961,0.0,7.1,174.0,7.9,'11111222,11111222,11111222' 
TCOON,ioos:station:TCOON:057:1,2008-06-02T11:00:00Z,28.4460,-96.3961,0.0,7.8,188.0,8.7,'11111222,11111222,11111222' 
TCOON,ioos:station:TCOON:057:1,2008-06-02T12:00:00Z,28.4460,-96.3961,0.0,4.2,197.0,5.1,'11111222,11111222,11111222' 
TCOON,ioos:station:TCOON:057:1,2008-06-02T13:00:00Z,28.4460,-96.3961,0.0,6.8,164.0,7.5,'11111222,11111222,11111222' 
TCOON,ioos:station:TCOON:057:1,2008-06-02T14:00:00Z,28.4460,-96.3961,0.0,6.8,163.0,7.6,'11111222,11111222,11111222' 
TCOON,ioos:station:TCOON:057:1,2008-06-02T15:00:00Z,28.4460,-96.3961,0.0,6.5,168.0,7.4,'11111222,11111222,11111222' 
TCOON,ioos:station:TCOON:057:1,2008-06-02T16:00:00Z,28.4460,-96.3961,0.0,6.0,164.0,6.7,'11111222,11111222,11111222' 
TCOON,ioos:station:TCOON:057:1,2008-06-02T17:00:00Z,28.4460,-96.3961,0.0,5.6,169.0,6.7,'11111222,11111222,11111222' 
TCOON,ioos:station:TCOON:057:1,2008-06-02T18:00:00Z,28.4460,-96.3961,0.0,6.6,155.0,7.9,'11111222,11111222,11111222' 
TCOON,ioos:station:TCOON:057:1,2008-06-02T19:00:00Z,28.4460,-96.3961,0.0,7.0,168.0,8.2,'11111222,11111222,11111222' 
TCOON,ioos:station:TCOON:057:1,2008-06-02T20:00:00Z,28.4460,-96.3961,0.0,5.9,164.0,6.8,'11111222,11111222,11111222' 
TCOON,ioos:station:TCOON:057:1,2008-06-02T21:00:00Z,28.4460,-96.3961,0.0,7.0,170.0,8.0,'11111222,11111222,11111222' 
TCOON,ioos:station:TCOON:057:1,2008-06-02T22:00:00Z,28.4460,-96.3961,0.0,8.2,164.0,9.2,'11111222,11111222,11111222' 
TCOON,ioos:station:TCOON:057:1,2008-06-02T23:00:00Z,28.4460,-96.3961,0.0,8.0,161.0,9.1,'11111222,11111222,11111222' 
TCOON,ioos:station:TCOON:057:1,2008-06-03T00:00:00Z,28.4460,-96.3961,0.0,7.8,158.0,8.8,'11111222,11111222,11111222' 
TCOON,ioos:station:TCOON:057:1,2008-06-03T01:00:00Z,28.4460,-96.3961,0.0,7.4,158.0,8.9,'11111222,11111222,11111222' 
TCOON,ioos:station:TCOON:057:1,2008-06-03T02:00:00Z,28.4460,-96.3961,0.0,8.9,150.0,9.9,'11111222,11111222,11111222' 
TCOON,ioos:station:TCOON:057:1,2008-06-03T03:00:00Z,28.4460,-96.3961,0.0,9.3,150.0,10.7,'11111222,11111222,11111222' 
TCOON,ioos:station:TCOON:057:1,2008-06-03T04:00:00Z,28.4460,-96.3961,0.0,9.0,160.0,10.0,'11111222,11111222,11111222' 
TCOON,ioos:station:TCOON:057:1,2008-06-03T05:00:00Z,28.4460,-96.3961,0.0,9.3,158.0,10.8,'11111222,11111222,11111222' 
TCOON,ioos:station:TCOON:057:1,2008-06-03T06:00:00Z,28.4460,-96.3961,0.0,9.8,162.0,11.4,'11111222,11111222,11111222' 
TCOON,ioos:station:TCOON:057:1,2008-06-03T07:00:00Z,28.4460,-96.3961,0.0,9.9,167.0,11.3,'11111222,11111222,11111222' 
TCOON,ioos:station:TCOON:057:1,2008-06-03T08:00:00Z,28.4460,-96.3961,0.0,8.9,171.0,10.2,'11111222,11111222,11111222' 
TCOON,ioos:station:TCOON:057:1,2008-06-03T09:00:00Z,28.4460,-96.3961,0.0,10.1,174.0,11.3,'11111222,11111222,11111222' 
TCOON,ioos:station:TCOON:057:1,2008-06-03T10:00:00Z,28.4460,-96.3961,0.0,8.9,185.0,10.5,'11111222,11111222,11111222' 
TCOON,ioos:station:TCOON:057:1,2008-06-03T11:00:00Z,28.4460,-96.3961,0.0,8.9,184.0,10.3,'11111222,11111222,11111222' 
TCOON,ioos:station:TCOON:057:1,2008-06-03T12:00:00Z,28.4460,-96.3961,0.0,8.7,188.0,10.6,'11111222,11111222,11111222' 
TCOON,ioos:station:TCOON:057:1,2008-06-03T13:00:00Z,28.4460,-96.3961,0.0,9.6,181.0,10.8,'11111222,11111222,11111222' 
TCOON,ioos:station:TCOON:057:1,2008-06-03T14:00:00Z,28.4460,-96.3961,0.0,8.9,199.0,10.2,'11111222,11111222,11111222' 
TCOON,ioos:station:TCOON:057:1,2008-06-03T15:00:00Z,28.4460,-96.3961,0.0,8.2,197.0,10.1,'11111222,11111222,11111222' 
TCOON,ioos:station:TCOON:057:1,2008-06-03T16:00:00Z,28.4460,-96.3961,0.0,9.3,190.0,11.2,'11111222,11111222,11111222' 
TCOON,ioos:station:TCOON:057:1,2008-06-03T17:00:00Z,28.4460,-96.3961,0.0,8.0,184.0,9.2,'11111222,11111222,11111222' 
TCOON,ioos:station:TCOON:057:1,2008-06-03T18:00:00Z,28.4460,-96.3961,0.0,7.9,176.0,9.6,'11111222,11111222,11111222' 
TCOON,ioos:station:TCOON:057:1,2008-06-03T19:00:00Z,28.4460,-96.3961,0.0,8.8,179.0,10.5,'11111222,11111222,11111222' 
TCOON,ioos:station:TCOON:057:1,2008-06-03T20:00:00Z,28.4460,-96.3961,0.0,7.9,171.0,8.9,'11111222,11111222,11111222' 
TCOON,ioos:station:TCOON:057:1,2008-06-03T21:00:00Z,28.4460,-96.3961,0.0,8.9,177.0,10.1,'11111222,11111222,11111222' 
TCOON,ioos:station:TCOON:057:1,2008-06-03T22:00:00Z,28.4460,-96.3961,0.0,8.7,173.0,10.2,'11111222,11111222,11111222' 
TCOON,ioos:station:TCOON:057:1,2008-06-03T23:00:00Z,28.4460,-96.3961,0.0,9.4,173.0,10.9,'11111222,11111222,11111222' 
TCOON,ioos:station:TCOON:057:1,2008-06-04T00:00:00Z,28.4460,-96.3961,0.0,8.7,160.0,10.1,'11111222,11111222,11111222' 
TCOON,ioos:station:TCOON:057:1,2008-06-04T01:00:00Z,28.4460,-96.3961,0.0,9.3,169.0,10.4,'11111222,11111222,11111222' 
TCOON,ioos:station:TCOON:057:1,2008-06-04T02:00:00Z,28.4460,-96.3961,0.0,9.7,166.0,11.3,'11111222,11111222,11111222' 
TCOON,ioos:station:TCOON:057:1,2008-06-04T03:00:00Z,28.4460,-96.3961,0.0,9.6,167.0,11.4,'11111222,11111222,11111222' 
TCOON,ioos:station:TCOON:057:1,2008-06-04T04:00:00Z,28.4460,-96.3961,0.0,10.0,162.0,11.8,'11111222,11111222,11111222' 
TCOON,ioos:station:TCOON:057:1,2008-06-04T05:00:00Z,28.4460,-96.3961,0.0,10.1,168.0,11.5,'11111222,11111222,11111222' 
TCOON,ioos:station:TCOON:057:1,2008-06-04T06:00:00Z,28.4460,-96.3961,0.0,11.3,170.0,13.2,'11111222,11111222,11111222' 
TCOON,ioos:station:TCOON:057:1,2008-06-04T07:00:00Z,28.4460,-96.3961,0.0,11.6,169.0,13.0,'11111222,11111222,11111222' 
TCOON,ioos:station:TCOON:057:1,2008-06-04T08:00:00Z,28.4460,-96.3961,0.0,10.8,179.0,12.3,'11111222,11111222,11111222' 
TCOON,ioos:station:TCOON:057:1,2008-06-04T09:00:00Z,28.4460,-96.3961,0.0,11.4,184.0,13.2,'11111222,11111222,11111222' 
TCOON,ioos:station:TCOON:057:1,2008-06-04T10:00:00Z,28.4460,-96.3961,0.0,11.0,186.0,12.8,'11111222,11111222,11111222' 
TCOON,ioos:station:TCOON:057:1,2008-06-04T11:00:00Z,28.4460,-96.3961,0.0,12.0,173.0,14.1,'11111222,11111222,11111222' 
TCOON,ioos:station:TCOON:057:1,2008-06-04T12:00:00Z,28.4460,-96.3961,0.0,11.1,172.0,12.8,'11111222,11111222,11111222' 
TCOON,ioos:station:TCOON:057:1,2008-06-04T13:00:00Z,28.4460,-96.3961,0.0,12.1,177.0,13.4,'11111222,11111222,11111222' 
TCOON,ioos:station:TCOON:057:1,2008-06-04T14:00:00Z,28.4460,-96.3961,0.0,11.3,176.0,12.8,'11111222,11111222,11111222' 
TCOON,ioos:station:TCOON:057:1,2008-06-04T15:00:00Z,28.4460,-96.3961,0.0,12.0,176.0,13.4,'11111222,11111222,11111222' 
TCOON,ioos:station:TCOON:057:1,2008-06-04T16:00:00Z,28.4460,-96.3961,0.0,12.2,171.0,13.6,'11111222,11111222,11111222' 
TCOON,ioos:station:TCOON:057:1,2008-06-04T17:00:00Z,28.4460,-96.3961,0.0,11.9,171.0,13.4,'11111222,11111222,11111222' 
TCOON,ioos:station:TCOON:057:1,2008-06-04T18:00:00Z,28.4460,-96.3961,0.0,10.3,176.0,12.4,'11111222,11111222,11111222' 
TCOON,ioos:station:TCOON:057:1,2008-06-04T19:00:00Z,28.4460,-96.3961,0.0,10.7,170.0,12.3,'11111222,11111222,11111222' 
TCOON,ioos:station:TCOON:057:1,2008-06-04T20:00:00Z,28.4460,-96.3961,0.0,10.2,163.0,11.8,'11111222,11111222,11111222' 
TCOON,ioos:station:TCOON:057:1,2008-06-04T21:00:00Z,28.4460,-96.3961,0.0,9.9,165.0,12.0,'11111222,11111222,11111222' 
TCOON,ioos:station:TCOON:057:1,2008-06-04T22:00:00Z,28.4460,-96.3961,0.0,10.4,160.0,11.8,'11111222,11111222,11111222' 
TCOON,ioos:station:TCOON:057:1,2008-06-04T23:00:00Z,28.4460,-96.3961,0.0,10.4,157.0,12.1,'11111222,11111222,11111222' 
TCOON,ioos:station:TCOON:057:1,2008-06-05T00:00:00Z,28.4460,-96.3961,0.0,9.6,152.0,11.4,'11111222,11111222,11111222' 
TCOON,ioos:station:TCOON:057:1,2008-06-05T01:00:00Z,28.4460,-96.3961,0.0,11.2,154.0,12.7,'11111222,11111222,11111222' 
TCOON,ioos:station:TCOON:057:1,2008-06-05T02:00:00Z,28.4460,-96.3961,0.0,11.0,149.0,13.0,'11111222,11111222,11111222' 
TCOON,ioos:station:TCOON:057:1,2008-06-05T03:00:00Z,28.4460,-96.3961,0.0,12.8,152.0,14.9,'11111222,11111222,11111222' 
TCOON,ioos:station:TCOON:057:1,2008-06-05T04:00:00Z,28.4460,-96.3961,0.0,12.5,152.0,14.9,'11111222,11111222,11111222' 
TCOON,ioos:station:TCOON:057:1,2008-06-05T05:00:00Z,28.4460,-96.3961,0.0,13.0,158.0,15.8,'11111222,11111222,11111222' 
TCOON,ioos:station:TCOON:057:1,2008-06-05T06:00:00Z,28.4460,-96.3961,0.0,12.6,156.0,14.7,'11111222,11111222,11111222' 
TCOON,ioos:station:TCOON:057:1,2008-06-05T07:00:00Z,28.4460,-96.3961,0.0,14.1,168.0,16.0,'11111222,11111222,11111222' 
TCOON,ioos:station:TCOON:057:1,2008-06-05T08:00:00Z,28.4460,-96.3961,0.0,12.8,169.0,15.1,'11111222,11111222,11111222' 
TCOON,ioos:station:TCOON:057:1,2008-06-05T09:00:00Z,28.4460,-96.3961,0.0,12.7,168.0,15.4,'11111222,11111222,11111222' 
TCOON,ioos:station:TCOON:057:1,2008-06-05T10:00:00Z,28.4460,-96.3961,0.0,12.6,168.0,14.2,'11111222,11111222,11111222' 
TCOON,ioos:station:TCOON:057:1,2008-06-05T11:00:00Z,28.4460,-96.3961,0.0,10.4,166.0,13.3,'11111222,11111222,11111222' 
TCOON,ioos:station:TCOON:057:1,2008-06-05T12:00:00Z,28.4460,-96.3961,0.0,12.0,166.0,13.5,'11111222,11111222,11111222' 
TCOON,ioos:station:TCOON:057:1,2008-06-05T13:00:00Z,28.4460,-96.3961,0.0,11.8,164.0,14.9,'11111222,11111222,11111222' 
TCOON,ioos:station:TCOON:057:1,2008-06-05T14:00:00Z,28.4460,-96.3961,0.0,10.5,161.0,12.5,'11111222,11111222,11111222' 
TCOON,ioos:station:TCOON:057:1,2008-06-05T15:00:00Z,28.4460,-96.3961,0.0,10.6,158.0,12.3,'11111222,11111222,11111222' 
TCOON,ioos:station:TCOON:057:1,2008-06-05T16:00:00Z,28.4460,-96.3961,0.0,11.3,161.0,12.7,'11111222,11111222,11111222' 
TCOON,ioos:station:TCOON:057:1,2008-06-05T17:00:00Z,28.4460,-96.3961,0.0,11.1,156.0,12.8,'11111222,11111222,11111222' 
TCOON,ioos:station:TCOON:057:1,2008-06-05T18:00:00Z,28.4460,-96.3961,0.0,11.9,155.0,13.6,'11111222,11111222,11111222' 
TCOON,ioos:station:TCOON:057:1,2008-06-05T19:00:00Z,28.4460,-96.3961,0.0,12.7,149.0,15.1,'11111222,11111222,11111222' 
TCOON,ioos:station:TCOON:057:1,2008-06-05T20:00:00Z,28.4460,-96.3961,0.0,10.3,153.0,12.2,'11111222,11111222,11111222' 
TCOON,ioos:station:TCOON:057:1,2008-06-05T21:00:00Z,28.4460,-96.3961,0.0,11.7,154.0,13.5,'11111222,11111222,11111222' 
TCOON,ioos:station:TCOON:057:1,2008-06-05T22:00:00Z,28.4460,-96.3961,0.0,12.3,148.0,14.2,'11111222,11111222,11111222' 
TCOON,ioos:station:TCOON:057:1,2008-06-05T23:00:00Z,28.4460,-96.3961,0.0,12.1,151.0,14.5,'11111222,11111222,11111222' 
TCOON,ioos:station:TCOON:057:1,2008-06-06T00:00:00Z,28.4460,-96.3961,0.0,11.6,150.0,13.5,'11111222,11111222,11111222' 
TCOON,ioos:station:TCOON:057:1,2008-06-06T01:00:00Z,28.4460,-96.3961,0.0,10.7,150.0,13.1,'11111222,11111222,11111222' 
TCOON,ioos:station:TCOON:057:1,2008-06-06T02:00:00Z,28.4460,-96.3961,0.0,9.9,146.0,12.0,'11111222,11111222,11111222' 
TCOON,ioos:station:TCOON:057:1,2008-06-06T03:00:00Z,28.4460,-96.3961,0.0,12.0,150.0,13.4,'11111222,11111222,11111222' 
TCOON,ioos:station:TCOON:057:1,2008-06-06T04:00:00Z,28.4460,-96.3961,0.0,11.5,154.0,13.5,'11111222,11111222,11111222' 
TCOON,ioos:station:TCOON:057:1,2008-06-06T05:00:00Z,28.4460,-96.3961,0.0,12.5,153.0,15.2,'11111222,11111222,11111222' 
TCOON,ioos:station:TCOON:057:1,2008-06-06T06:00:00Z,28.4460,-96.3961,0.0,12.8,154.0,14.2,'11111222,11111222,11111222' 
TCOON,ioos:station:TCOON:057:1,2008-06-06T07:00:00Z,28.4460,-96.3961,0.0,13.5,158.0,15.2,'11111222,11111222,11111222' 
TCOON,ioos:station:TCOON:057:1,2008-06-06T08:00:00Z,28.4460,-96.3961,0.0,13.4,160.0,15.8,'11111222,11111222,11111222' 
TCOON,ioos:station:TCOON:057:1,2008-06-06T09:00:00Z,28.4460,-96.3961,0.0,12.8,160.0,15.2,'11111222,11111222,11111222' 
TCOON,ioos:station:TCOON:057:1,2008-06-06T10:00:00Z,28.4460,-96.3961,0.0,12.0,161.0,14.0,'11111222,11111222,11111222' 
TCOON,ioos:station:TCOON:057:1,2008-06-06T11:00:00Z,28.4460,-96.3961,0.0,9.6,157.0,11.8,'11111222,11111222,11111222' 
TCOON,ioos:station:TCOON:057:1,2008-06-06T12:00:00Z,28.4460,-96.3961,0.0,9.7,156.0,11.7,'11111222,11111222,11111222' 
TCOON,ioos:station:TCOON:057:1,2008-06-06T13:00:00Z,28.4460,-96.3961,0.0,9.8,150.0,11.7,'11111222,11111222,11111222' 
TCOON,ioos:station:TCOON:057:1,2008-06-06T14:00:00Z,28.4460,-96.3961,0.0,9.0,154.0,10.6,'11111222,11111222,11111222' 
TCOON,ioos:station:TCOON:057:1,2008-06-06T15:00:00Z,28.4460,-96.3961,0.0,8.9,147.0,10.3,'11111222,11111222,11111222' 
TCOON,ioos:station:TCOON:057:1,2008-06-06T16:00:00Z,28.4460,-96.3961,0.0,8.7,147.0,9.9,'11111222,11111222,11111222' 
TCOON,ioos:station:TCOON:057:1,2008-06-06T17:00:00Z,28.4460,-96.3961,0.0,8.8,143.0,10.5,'11111222,11111222,11111222' 
TCOON,ioos:station:TCOON:057:1,2008-06-06T18:00:00Z,28.4460,-96.3961,0.0,8.4,136.0,9.3,'11111222,11111222,11111222' 
TCOON,ioos:station:TCOON:057:1,2008-06-06T19:00:00Z,28.4460,-96.3961,0.0,7.0,136.0,8.0,'11111222,11111222,11111222' 
TCOON,ioos:station:TCOON:057:1,2008-06-06T20:00:00Z,28.4460,-96.3961,0.0,7.6,140.0,8.4,'11111222,11111222,11111222' 
TCOON,ioos:station:TCOON:057:1,2008-06-06T21:00:00Z,28.4460,-96.3961,0.0,8.3,146.0,10.1,'11111222,11111222,11111222' 
TCOON,ioos:station:TCOON:057:1,2008-06-06T22:00:00Z,28.4460,-96.3961,0.0,8.7,138.0,11.7,'11111222,11111222,11111222' 
TCOON,ioos:station:TCOON:057:1,2008-06-06T23:00:00Z,28.4460,-96.3961,0.0,9.6,134.0,11.3,'11111222,11111222,11111222' 
TCOON,ioos:station:TCOON:057:1,2008-06-07T00:00:00Z,28.4460,-96.3961,0.0,9.3,138.0,10.8,'11111222,11111222,11111222' 
TCOON,ioos:station:TCOON:057:1,2008-06-07T01:00:00Z,28.4460,-96.3961,0.0,10.3,136.0,11.5,'11111222,11111222,11111222' 
TCOON,ioos:station:TCOON:057:1,2008-06-07T02:00:00Z,28.4460,-96.3961,0.0,10.3,137.0,12.0,'11111222,11111222,11111222' 
TCOON,ioos:station:TCOON:057:1,2008-06-07T03:00:00Z,28.4460,-96.3961,0.0,9.5,138.0,10.6,'11111222,11111222,11111222' 
TCOON,ioos:station:TCOON:057:1,2008-06-07T04:00:00Z,28.4460,-96.3961,0.0,9.8,136.0,11.1,'11111222,11111222,11111222' 
TCOON,ioos:station:TCOON:057:1,2008-06-07T05:00:00Z,28.4460,-96.3961,0.0,8.8,142.0,10.3,'11111222,11111222,11111222' 
TCOON,ioos:station:TCOON:057:1,2008-06-07T06:00:00Z,28.4460,-96.3961,0.0,10.5,140.0,12.1,'11111222,11111222,11111222' 
TCOON,ioos:station:TCOON:057:1,2008-06-07T07:00:00Z,28.4460,-96.3961,0.0,9.2,142.0,10.9,'11111222,11111222,11111222' 
TCOON,ioos:station:TCOON:057:1,2008-06-07T08:00:00Z,28.4460,-96.3961,0.0,8.9,139.0,10.4,'11111222,11111222,11111222' 
TCOON,ioos:station:TCOON:057:1,2008-06-07T09:00:00Z,28.4460,-96.3961,0.0,9.3,142.0,10.6,'11111222,11111222,11111222' 
TCOON,ioos:station:TCOON:057:1,2008-06-07T10:00:00Z,28.4460,-96.3961,0.0,8.6,146.0,10.2,'11111222,11111222,11111222' 
TCOON,ioos:station:TCOON:057:1,2008-06-07T11:00:00Z,28.4460,-96.3961,0.0,9.7,146.0,11.0,'11111222,11111222,11111222' 
TCOON,ioos:station:TCOON:057:1,2008-06-07T12:00:00Z,28.4460,-96.3961,0.0,8.1,144.0,9.3,'11111222,11111222,11111222' 
TCOON,ioos:station:TCOON:057:1,2008-06-07T13:00:00Z,28.4460,-96.3961,0.0,9.3,146.0,10.4,'11111222,11111222,11111222' 
TCOON,ioos:station:TCOON:057:1,2008-06-07T14:00:00Z,28.4460,-96.3961,0.0,9.4,144.0,11.3,'11111222,11111222,11111222' 
TCOON,ioos:station:TCOON:057:1,2008-06-07T15:00:00Z,28.4460,-96.3961,0.0,9.9,144.0,11.7,'11111222,11111222,11111222' 
TCOON,ioos:station:TCOON:057:1,2008-06-07T16:00:00Z,28.4460,-96.3961,0.0,8.5,142.0,9.6,'11111222,11111222,11111222' 
TCOON,ioos:station:TCOON:057:1,2008-06-07T17:00:00Z,28.4460,-96.3961,0.0,9.1,142.0,10.5,'11111222,11111222,11111222' 
TCOON,ioos:station:TCOON:057:1,2008-06-07T18:00:00Z,28.4460,-96.3961,0.0,8.7,142.0,9.9,'11111222,11111222,11111222' 
TCOON,ioos:station:TCOON:057:1,2008-06-07T19:00:00Z,28.4460,-96.3961,0.0,9.2,139.0,10.3,'11111222,11111222,11111222' 
TCOON,ioos:station:TCOON:057:1,2008-06-07T20:00:00Z,28.4460,-96.3961,0.0,10.1,137.0,11.4,'11111222,11111222,11111222' 
TCOON,ioos:station:TCOON:057:1,2008-06-07T21:00:00Z,28.4460,-96.3961,0.0,8.5,140.0,9.8,'11111222,11111222,11111222' 
TCOON,ioos:station:TCOON:057:1,2008-06-07T22:00:00Z,28.4460,-96.3961,0.0,9.0,162.0,10.4,'11111222,11111222,11111222' 
TCOON,ioos:station:TCOON:057:1,2008-06-07T23:00:00Z,28.4460,-96.3961,0.0,6.4,145.0,7.3,'11111222,11111222,11111222' 
TCOON,ioos:station:TCOON:057:1,2008-06-08T00:00:00Z,28.4460,-96.3961,0.0,7.5,138.0,8.4,'11111222,11111222,11111222' 
TCOON,ioos:station:TCOON:057:1,2008-06-08T01:00:00Z,28.4460,-96.3961,0.0,9.4,139.0,10.5,'11111222,11111222,11111222' 
TCOON,ioos:station:TCOON:057:1,2008-06-08T02:00:00Z,28.4460,-96.3961,0.0,9.2,145.0,10.6,'11111222,11111222,11111222' 
TCOON,ioos:station:TCOON:057:1,2008-06-08T03:00:00Z,28.4460,-96.3961,0.0,10.5,143.0,11.8,'11111222,11111222,11111222' 
TCOON,ioos:station:TCOON:057:1,2008-06-08T04:00:00Z,28.4460,-96.3961,0.0,9.8,144.0,11.8,'11111222,11111222,11111222' 
TCOON,ioos:station:TCOON:057:1,2008-06-08T05:00:00Z,28.4460,-96.3961,0.0,8.8,146.0,10.1,'11111222,11111222,11111222' 
TCOON,ioos:station:TCOON:057:1,2008-06-08T06:00:00Z,28.4460,-96.3961,0.0,10.7,148.0,12.2,'11111222,11111222,11111222' 
TCOON,ioos:station:TCOON:057:1,2008-06-08T07:00:00Z,28.4460,-96.3961,0.0,10.1,154.0,11.5,'11111222,11111222,11111222' 
TCOON,ioos:station:TCOON:057:1,2008-06-08T08:00:00Z,28.4460,-96.3961,0.0,9.0,154.0,10.9,'11111222,11111222,11111222' 
TCOON,ioos:station:TCOON:057:1,2008-06-08T09:00:00Z,28.4460,-96.3961,0.0,9.7,156.0,10.8,'11111222,11111222,11111222' 
TCOON,ioos:station:TCOON:057:1,2008-06-08T10:00:00Z,28.4460,-96.3961,0.0,9.0,154.0,10.7,'11111222,11111222,11111222' 
TCOON,ioos:station:TCOON:057:1,2008-06-08T11:00:00Z,28.4460,-96.3961,0.0,10.3,160.0,11.8,'11111222,11111222,11111222' 
TCOON,ioos:station:TCOON:057:1,2008-06-08T12:00:00Z,28.4460,-96.3961,0.0,7.0,155.0,8.0,'11111222,11111222,11111222' 
TCOON,ioos:station:TCOON:057:1,2008-06-08T13:00:00Z,28.4460,-96.3961,0.0,8.1,154.0,9.2,'11111222,11111222,11111222' 
TCOON,ioos:station:TCOON:057:1,2008-06-08T14:00:00Z,28.4460,-96.3961,0.0,7.4,154.0,8.6,'11111222,11111222,11111222' 
TCOON,ioos:station:TCOON:057:1,2008-06-08T15:00:00Z,28.4460,-96.3961,0.0,9.0,151.0,10.5,'11111222,11111222,11111222' 
TCOON,ioos:station:TCOON:057:1,2008-06-08T16:00:00Z,28.4460,-96.3961,0.0,7.1,151.0,8.0,'11111222,11111222,11111222' 
TCOON,ioos:station:TCOON:057:1,2008-06-08T17:00:00Z,28.4460,-96.3961,0.0,7.9,148.0,8.9,'11111222,11111222,11111222' 
TCOON,ioos:station:TCOON:057:1,2008-06-08T18:00:00Z,28.4460,-96.3961,0.0,8.7,147.0,9.9,'11111222,11111222,11111222' 
TCOON,ioos:station:TCOON:057:1,2008-06-08T19:00:00Z,28.4460,-96.3961,0.0,9.3,144.0,10.5,'11111222,11111222,11111222' 
TCOON,ioos:station:TCOON:057:1,2008-06-08T20:00:00Z,28.4460,-96.3961,0.0,8.3,150.0,9.6,'11111222,11111222,11111222' 
TCOON,ioos:station:TCOON:057:1,2008-06-08T21:00:00Z,28.4460,-96.3961,0.0,7.6,145.0,9.0,'11111222,11111222,11111222' 
TCOON,ioos:station:TCOON:057:1,2008-06-08T22:00:00Z,28.4460,-96.3961,0.0,8.6,141.0,10.0,'11111222,11111222,11111222' 
TCOON,ioos:station:TCOON:057:1,2008-06-08T23:00:00Z,28.4460,-96.3961,0.0,9.2,131.0,10.2,'11111222,11111222,11111222' 
TCOON,ioos:station:TCOON:057:1,2008-06-09T00:00:00Z,28.4460,-96.3961,0.0,9.0,132.0,10.4,'11111222,11111222,11111222' 
TCOON,ioos:station:TCOON:057:1,2008-06-09T01:00:00Z,28.4460,-96.3961,0.0,9.9,136.0,11.0,'11111222,11111222,11111222' 
TCOON,ioos:station:TCOON:057:1,2008-06-09T02:00:00Z,28.4460,-96.3961,0.0,9.6,141.0,11.2,'11111222,11111222,11111222' 
TCOON,ioos:station:TCOON:057:1,2008-06-09T03:00:00Z,28.4460,-96.3961,0.0,9.5,141.0,11.3,'11111222,11111222,11111222' 
TCOON,ioos:station:TCOON:057:1,2008-06-09T04:00:00Z,28.4460,-96.3961,0.0,10.9,145.0,12.1,'11111222,11111222,11111222' 
TCOON,ioos:station:TCOON:057:1,2008-06-09T05:00:00Z,28.4460,-96.3961,0.0,9.5,153.0,11.2,'11111222,11111222,11111222' 
TCOON,ioos:station:TCOON:057:1,2008-06-09T06:00:00Z,28.4460,-96.3961,0.0,10.7,161.0,12.5,'11111222,11111222,11111222' 
TCOON,ioos:station:TCOON:057:1,2008-06-09T07:00:00Z,28.4460,-96.3961,0.0,9.5,156.0,11.5,'11111222,11111222,11111222' 
TCOON,ioos:station:TCOON:057:1,2008-06-09T08:00:00Z,28.4460,-96.3961,0.0,10.4,162.0,12.0,'11111222,11111222,11111222' 
TCOON,ioos:station:TCOON:057:1,2008-06-09T09:00:00Z,28.4460,-96.3961,0.0,8.9,170.0,10.7,'11111222,11111222,11111222' 